sat.trackr.live / text

‹ back to catalog

STARLINK-5211

NORAD 54086 · 2022-136AM

PAYLOAD ACTIVE UNKNOWN

§ Identity

Operator
Country
US
Launch date
2022-10-20
Launch site
AFETR
Launch vehicle
Mass (kg)
RCS (m²)

Purposes: comms

External: N2YO · Heavens-Above · Gunter

§ Orbital elements

Epoch: 2026-05-24T19:15:32.267520Z

Period
95.44 min
Inclination
53.2153°
Eccentricity
0.0001281
Mean motion
15.08840212 rev/d
Perigee alt
538.9 km
Apogee alt
540.6 km
Semi-major
6,917.9 km
B*
4.2995e-5
RAAN
337.5380°
Arg perigee
87.9684°
Mean anomaly
272.1455°
Rev number
19,868

§ Raw data

STARLINK-52111 54086U 22136AM  26144.80245680  .00000396  00000+0  42995-4 0  99972 54086  53.2153 337.5380 0001281  87.9684 272.1455 15.08840212198686

JSON: /api/v1/satellites/54086 · /tle

For live sub-satellite position, see the globe view (requires WebGL).

§ Visibility from observer

Set your observer location to see the next 7 days of passes ≥ 10°. The values pass through the URL so the page stays shareable.

No JS? Fill the form by hand. The geolocation button needs JavaScript.